| time (UTC) | temp C | wind direction | speed KPH | gust KPH | rain 1hr cm | rain 24hr cm | rain mn cm | humidity % | barometer mb |
| 20260504100502 | 12 | 238 | 9.7 | 20.9 | 0.00 | 0.00 | 0.00 | 51 | 997.3 |
| 20260504082005 | 11 | 232 | 8.0 | 14.5 | 0.00 | 0.00 | 0.00 | 54 | 998.8 |
| 20260504081516 | 11 | 221 | 6.4 | 14.5 | 0.00 | 0.00 | 0.00 | 54 | 998.9 |
| 20260504081009 | 11 | 237 | 6.4 | 14.5 | 0.00 | 0.00 | 0.00 | 54 | 999.1 |
| 20260504080503 | 11 | 173 | 3.2 | 14.5 | 0.00 | 0.00 | 0.00 | 53 | 999.2 |
| 20260504050508 | 11 | 227 | 3.2 | 6.4 | 0.00 | 0.00 | 0.00 | 53 | 1002.4 |
| 20260504050009 | 11 | 238 | 3.2 | 6.4 | 0.00 | 0.00 | 0.00 | 53 | 1002.5 |
| 20260504045503 | 11 | 218 | 3.2 | 8.0 | 0.00 | 0.00 | 0.00 | 52 | 1002.6 |
| 20260504045003 | 11 | 219 | 3.2 | 8.0 | 0.00 | 0.00 | 0.00 | 52 | 1002.7 |
| 20260504044520 | 11 | 185 | 3.2 | 8.0 | 0.00 | 0.00 | 0.00 | 53 | 1002.8 |
| 20260504044006 | 11 | 216 | 3.2 | 8.0 | 0.00 | 0.00 | 0.00 | 52 | 1002.9 |
| 20260504043507 | 11 | 205 | 3.2 | 8.0 | 0.00 | 0.00 | 0.00 | 52 | 1003.0 |
| 20260504043015 | 11 | 205 | 3.2 | 8.0 | 0.00 | 0.00 | 0.00 | 52 | 1003.1 |
| 20260504042507 | 11 | 214 | 3.2 | 6.4 | 0.00 | 0.00 | 0.00 | 52 | 1003.1 |
| 20260504042011 | 11 | 218 | 3.2 | 6.4 | 0.00 | 0.00 | 0.00 | 51 | 1003.2 |
| 20260504041533 | 11 | 219 | 3.2 | 8.0 | 0.00 | 0.00 | 0.00 | 51 | 1003.3 |
| 20260504041003 | 11 | 243 | 1.6 | 8.0 | 0.00 | 0.00 | 0.00 | 52 | 1003.4 |
| 20260504040509 | 11 | 229 | 3.2 | 6.4 | 0.00 | 0.00 | 0.00 | 54 | 1003.4 |
| 20260504040019 | 11 | 205 | 1.6 | 6.4 | 0.00 | 0.00 | 0.00 | 53 | 1003.5 |
| 20260504035505 | 11 | 196 | 3.2 | 8.0 | 0.00 | 0.00 | 0.00 | 54 | 1003.6 |
| 20260504035007 | 11 | 198 | 3.2 | 8.0 | 0.00 | 0.00 | 0.00 | 53 | 1003.7 |
| 20260504034518 | 11 | 196 | 3.2 | 6.4 | 0.00 | 0.00 | 0.00 | 56 | 1003.8 |
| 20260504034007 | 11 | 212 | 3.2 | 8.0 | 0.00 | 0.00 | 0.00 | 54 | 1003.8 |
| 20260504033506 | 11 | 217 | 3.2 | 8.0 | 0.00 | 0.00 | 0.00 | 53 | 1003.9 |
| 20260504033024 | 11 | 218 | 4.8 | 8.0 | 0.00 | 0.00 | 0.00 | 59 | 1004.0 |
| 20260504032509 | 11 | 221 | 1.6 | 4.8 | 0.00 | 0.00 | 0.00 | 60 | 1004.0 |
| 20260504032007 | 11 | 273 | 1.6 | 6.4 | 0.00 | 0.00 | 0.00 | 57 | 1004.0 |
| 20260504031522 | 12 | 214 | 1.6 | 6.4 | 0.00 | 0.00 | 0.00 | 52 | 1004.1 |
| 20260504031009 | 12 | 208 | 1.6 | 4.8 | 0.00 | 0.00 | 0.00 | 53 | 1004.1 |
| 20260504030509 | 12 | 221 | 3.2 | 6.4 | 0.00 | 0.00 | 0.00 | 51 | 1004.2 |
| 20260504030014 | 12 | 205 | 3.2 | 6.4 | 0.00 | 0.00 | 0.00 | 53 | 1004.3 |
| 20260504025507 | 12 | 227 | 3.2 | 6.4 | 0.00 | 0.00 | 0.00 | 51 | 1004.4 |
| 20260504025007 | 12 | 227 | 1.6 | 4.8 | 0.00 | 0.00 | 0.00 | 50 | 1004.4 |
| 20260504024515 | 13 | 215 | 1.6 | 4.8 | 0.00 | 0.00 | 0.00 | 50 | 1004.4 |
| 20260504024006 | 13 | 217 | 1.6 | 4.8 | 0.00 | 0.00 | 0.00 | 51 | 1004.5 |
| 20260504023506 | 13 | 196 | 3.2 | 4.8 | 0.00 | 0.00 | 0.00 | 47 | 1004.5 |
| 20260504023026 | 13 | 215 | 1.6 | 4.8 | 0.00 | 0.00 | 0.00 | 46 | 1004.6 |
| 20260504022504 | 14 | 218 | 1.6 | 6.4 | 0.00 | 0.00 | 0.00 | 45 | 1004.7 |
| 20260504022007 | 14 | 227 | 3.2 | 6.4 | 0.00 | 0.00 | 0.00 | 43 | 1004.7 |
| 20260504021527 | 15 | 221 | 1.6 | 6.4 | 0.00 | 0.00 | 0.00 | 40 | 1004.6 |
| 20260504021007 | 15 | 225 | 3.2 | 6.4 | 0.00 | 0.00 | 0.00 | 38 | 1004.6 |
| 20260504020503 | 15 | 226 | 3.2 | 4.8 | 0.00 | 0.00 | 0.00 | 37 | 1004.5 |
| 20260504020028 | 15 | 221 | 3.2 | 6.4 | 0.00 | 0.00 | 0.00 | 36 | 1004.5 |
| 20260504015505 | 16 | 221 | 3.2 | 6.4 | 0.00 | 0.00 | 0.00 | 36 | 1004.6 |
| 20260504015005 | 16 | 226 | 3.2 | 6.4 | 0.00 | 0.00 | 0.00 | 35 | 1004.6 |
| 20260504014522 | 16 | 229 | 3.2 | 9.7 | 0.00 | 0.00 | 0.00 | 34 | 1004.7 |
| 20260504014006 | 16 | 249 | 1.6 | 9.7 | 0.00 | 0.00 | 0.00 | 32 | 1004.8 |
| 20260504013505 | 17 | 234 | 3.2 | 8.0 | 0.00 | 0.00 | 0.00 | 33 | 1004.8 |
| 20260504013016 | 17 | 250 | 3.2 | 8.0 | 0.00 | 0.00 | 0.00 | 30 | 1004.9 |
| 20260504012505 | 17 | 247 | 3.2 | 11.3 | 0.00 | 0.00 | 0.00 | 30 | 1004.9 |
| 20260504012002 | 17 | 265 | 4.8 | 11.3 | 0.00 | 0.00 | 0.00 | 30 | 1004.9 |
| 20260504011509 | 17 | 265 | 6.4 | 11.3 | 0.00 | 0.00 | 0.00 | 30 | 1004.9 |
| 20260504011010 | 17 | 273 | 4.8 | 11.3 | 0.00 | 0.00 | 0.00 | 29 | 1004.9 |
| 20260504010502 | 18 | 265 | 3.2 | 11.3 | 0.00 | 0.00 | 0.00 | 29 | 1004.9 |
| 20260504010014 | 18 | 265 | 4.8 | 11.3 | 0.00 | 0.00 | 0.00 | 29 | 1005.0 |
| 20260504005507 | 18 | 288 | 3.2 | 16.1 | 0.00 | 0.00 | 0.00 | 28 | 1005.0 |
| 20260504005007 | 18 | 269 | 6.4 | 16.1 | 0.00 | 0.00 | 0.00 | 27 | 1005.1 |
| 20260504004511 | 18 | 281 | 4.8 | 14.5 | 0.00 | 0.00 | 0.00 | 28 | 1005.0 |
| 20260504004009 | 18 | 243 | 6.4 | 19.3 | 0.00 | 0.00 | 0.00 | 27 | 1005.0 |
| 20260504003508 | 18 | 254 | 9.7 | 22.5 | 0.00 | 0.00 | 0.00 | 26 | 1005.0 |
| 20260504003028 | 19 | 302 | 12.9 | 22.5 | 0.00 | 0.00 | 0.00 | 28 | 1005.1 |
| 20260504002503 | 19 | 238 | 6.4 | 22.5 | 0.00 | 0.00 | 0.00 | 26 | 1005.0 |
| 20260504002003 | 19 | 275 | 12.9 | 29.0 | 0.00 | 0.00 | 0.00 | 26 | 1005.1 |
| 20260504001521 | 19 | 261 | 11.3 | 29.0 | 0.00 | 0.00 | 0.00 | 27 | 1005.2 |
| 20260504001004 | 20 | 255 | 9.7 | 20.9 | 0.00 | 0.00 | 0.00 | 27 | 1005.2 |
| 20260504000507 | 20 | 267 | 11.3 | 20.9 | 0.00 | 0.00 | 0.00 | 27 | 1005.2 |
| 20260504000016 | 20 | 262 | 12.9 | 24.1 | 0.00 | 0.00 | 0.00 | 28 | 1005.1 |
| 20260503235506 | 20 | 261 | 14.5 | 27.4 | 0.00 | 0.00 | 0.00 | 25 | 1005.1 |
| 20260503235003 | 20 | 294 | 14.5 | 29.0 | 0.00 | 0.00 | 0.00 | 25 | 1005.1 |
| 20260503234520 | 20 | 254 | 16.1 | 29.0 | 0.00 | 0.00 | 0.00 | 27 | 1005.2 |
| 20260503234007 | 20 | 266 | 11.3 | 27.4 | 0.00 | 0.00 | 0.00 | 27 | 1005.1 |
| 20260503233503 | 21 | 240 | 12.9 | 25.7 | 0.00 | 0.00 | 0.00 | 26 | 1005.2 |
| 20260503233012 | 21 | 250 | 12.9 | 25.7 | 0.00 | 0.00 | 0.00 | 27 | 1005.2 |
| 20260503232504 | 21 | 261 | 11.3 | 22.5 | 0.00 | 0.00 | 0.00 | 28 | 1005.3 |
| 20260503232003 | 21 | 268 | 11.3 | 22.5 | 0.00 | 0.00 | 0.00 | 25 | 1005.4 |
| 20260503231510 | 21 | 306 | 14.5 | 24.1 | 0.00 | 0.00 | 0.00 | 26 | 1005.5 |
| 20260503231007 | 21 | 270 | 6.4 | 24.1 | 0.00 | 0.00 | 0.00 | 26 | 1005.4 |
| 20260503230509 | 21 | 304 | 11.3 | 24.1 | 0.00 | 0.00 | 0.00 | 25 | 1005.6 |
| 20260503230020 | 21 | 304 | 4.8 | 25.7 | 0.00 | 0.00 | 0.00 | 28 | 1005.6 |
| 20260503225504 | 21 | 310 | 6.4 | 25.7 | 0.00 | 0.00 | 0.00 | 26 | 1005.5 |
| 20260503225007 | 21 | 298 | 11.3 | 24.1 | 0.00 | 0.00 | 0.00 | 24 | 1005.6 |
| 20260503224522 | 21 | 238 | 14.5 | 27.4 | 0.00 | 0.00 | 0.00 | 26 | 1005.7 |
| 20260503224005 | 21 | 300 | 9.7 | 27.4 | 0.00 | 0.00 | 0.00 | 29 | 1005.7 |
| 20260503223507 | 21 | 273 | 12.9 | 24.1 | 0.00 | 0.00 | 0.00 | 26 | 1005.9 |
| 20260503223008 | 21 | 302 | 12.9 | 24.1 | 0.00 | 0.00 | 0.00 | 24 | 1005.8 |
| 20260503222503 | 21 | 295 | 14.5 | 25.7 | 0.00 | 0.00 | 0.00 | 23 | 1005.8 |
| 20260503222004 | 21 | 301 | 14.5 | 25.7 | 0.00 | 0.00 | 0.00 | 25 | 1005.8 |
| 20260503221515 | 21 | 301 | 12.9 | 33.8 | 0.00 | 0.00 | 0.00 | 24 | 1005.8 |
| 20260503221011 | 21 | 268 | 17.7 | 33.8 | 0.00 | 0.00 | 0.00 | 26 | 1005.9 |
| 20260503220506 | 21 | 307 | 16.1 | 35.4 | 0.00 | 0.00 | 0.00 | 24 | 1005.8 |
| 20260503220021 | 21 | 304 | 17.7 | 35.4 | 0.00 | 0.00 | 0.00 | 23 | 1005.9 |
| 20260503215510 | 21 | 312 | 17.7 | 29.0 | 0.00 | 0.00 | 0.00 | 25 | 1005.9 |
| 20260503215007 | 21 | 254 | 19.3 | 29.0 | 0.00 | 0.00 | 0.00 | 27 | 1005.9 |
| 20260503214534 | 21 | 289 | 14.5 | 32.2 | 0.00 | 0.00 | 0.00 | 27 | 1005.9 |
| 20260503214010 | 22 | 294 | 20.9 | 32.2 | 0.00 | 0.00 | 0.00 | 25 | 1005.9 |
| 20260503213507 | 22 | 282 | 11.3 | 30.6 | 0.00 | 0.00 | 0.00 | 28 | 1005.9 |
| 20260503213012 | 22 | 317 | 11.3 | 30.6 | 0.00 | 0.00 | 0.00 | 27 | 1006.0 |
| 20260503212504 | 22 | 267 | 17.7 | 30.6 | 0.00 | 0.00 | 0.00 | 29 | 1006.1 |
| 20260503212006 | 22 | 287 | 6.4 | 30.6 | 0.00 | 0.00 | 0.00 | 27 | 1006.0 |
| 20260503211519 | 22 | 338 | 9.7 | 30.6 | 0.00 | 0.00 | 0.00 | 28 | 1006.0 |
| 20260503211018 | 22 | 257 | 11.3 | 29.0 | 0.00 | 0.00 | 0.00 | 29 | 1006.1 |
| 20260503210507 | 22 | 254 | 14.5 | 29.0 | 0.00 | 0.00 | 0.00 | 26 | 1006.0 |
| 20260503210024 | 22 | 291 | 17.7 | 27.4 | 0.00 | 0.00 | 0.00 | 29 | 1006.1 |
| 20260503205503 | 22 | 254 | 11.3 | 22.5 | 0.00 | 0.00 | 0.00 | 27 | 1006.1 |
| 20260503205006 | 22 | 321 | 11.3 | 22.5 | 0.00 | 0.00 | 0.00 | 27 | 1006.2 |
| 20260503204524 | 21 | 234 | 6.4 | 30.6 | 0.00 | 0.00 | 0.00 | 29 | 1006.3 |
| 20260503204008 | 21 | 311 | 16.1 | 30.6 | 0.00 | 0.00 | 0.00 | 29 | 1006.4 |
| 20260503203502 | 21 | 302 | 11.3 | 35.4 | 0.00 | 0.00 | 0.00 | 27 | 1006.4 |
| 20260503203015 | 21 | 281 | 14.5 | 35.4 | 0.00 | 0.00 | 0.00 | 32 | 1006.7 |
| 20260503202506 | 22 | 289 | 19.3 | 33.8 | 0.00 | 0.00 | 0.00 | 29 | 1006.6 |
| 20260503202008 | 21 | 238 | 9.7 | 25.7 | 0.00 | 0.00 | 0.00 | 28 | 1006.4 |
| 20260503201520 | 21 | 313 | 9.7 | 27.4 | 0.00 | 0.00 | 0.00 | 30 | 1006.5 |
| 20260503201006 | 21 | 307 | 17.7 | 27.4 | 0.00 | 0.00 | 0.00 | 29 | 1006.7 |
| 20260503200509 | 21 | 287 | 9.7 | 27.4 | 0.00 | 0.00 | 0.00 | 28 | 1006.6 |
| 20260503200016 | 21 | 53 | 9.7 | 27.4 | 0.00 | 0.00 | 0.00 | 25 | 1006.8 |
| 20260503195509 | 21 | 205 | 12.9 | 32.2 | 0.00 | 0.00 | 0.00 | 30 | 1006.8 |
| 20260503195008 | 21 | 51 | 11.3 | 32.2 | 0.00 | 0.00 | 0.00 | 27 | 1006.8 |
| 20260503194526 | 21 | 280 | 14.5 | 29.0 | 0.00 | 0.00 | 0.00 | 27 | 1006.9 |
| 20260503194011 | 21 | 327 | 6.4 | 30.6 | 0.00 | 0.00 | 0.00 | 27 | 1007.1 |
| 20260503193508 | 21 | 250 | 14.5 | 30.6 | 0.00 | 0.00 | 0.00 | 33 | 1007.1 |
| 20260503193033 | 21 | 291 | 8.0 | 35.4 | 0.00 | 0.00 | 0.00 | 28 | 1007.0 |
| 20260503192505 | 21 | 300 | 20.9 | 35.4 | 0.00 | 0.00 | 0.00 | 28 | 1006.9 |
| 20260503192009 | 21 | 316 | 8.0 | 27.4 | 0.00 | 0.00 | 0.00 | 32 | 1006.8 |
| 20260503191549 | 20 | 10 | 14.5 | 37.0 | 0.00 | 0.00 | 0.00 | 28 | 1007.0 |
| 20260503191010 | 20 | 281 | 16.1 | 37.0 | 0.00 | 0.00 | 0.00 | 27 | 1007.1 |
| 20260503190505 | 21 | 312 | 12.9 | 30.6 | 0.00 | 0.00 | 0.00 | 30 | 1007.0 |
| 20260503190031 | 21 | 245 | 14.5 | 37.0 | 0.00 | 0.00 | 0.00 | 29 | 1007.0 |
| 20260503185510 | 21 | 153 | 19.3 | 37.0 | 0.00 | 0.00 | 0.00 | 30 | 1007.0 |
| 20260503185009 | 21 | 192 | 9.7 | 30.6 | 0.00 | 0.00 | 0.00 | 33 | 1007.0 |
| 20260503184524 | 21 | 286 | 11.3 | 32.2 | 0.00 | 0.00 | 0.00 | 32 | 1007.1 |
| 20260503184010 | 21 | 277 | 16.1 | 38.6 | 0.00 | 0.00 | 0.00 | 39 | 1007.3 |
| 20260503183510 | 20 | 294 | 20.9 | 38.6 | 0.00 | 0.00 | 0.00 | 32 | 1007.4 |
| 20260503183020 | 20 | 13 | 12.9 | 35.4 | 0.00 | 0.00 | 0.00 | 34 | 1007.3 |
| 20260503182505 | 20 | 324 | 19.3 | 35.4 | 0.00 | 0.00 | 0.00 | 33 | 1007.3 |
| 20260503182010 | 20 | 302 | 16.1 | 27.4 | 0.00 | 0.00 | 0.00 | 35 | 1007.2 |
| 20260503181515 | 20 | 262 | 16.1 | 30.6 | 0.00 | 0.00 | 0.00 | 36 | 1007.1 |
| 20260503181011 | 20 | 300 | 11.3 | 30.6 | 0.00 | 0.00 | 0.00 | 34 | 1007.4 |
| 20260503180507 | 20 | 281 | 16.1 | 27.4 | 0.00 | 0.00 | 0.00 | 33 | 1007.4 |
| 20260503180029 | 20 | 279 | 14.5 | 29.0 | 0.00 | 0.00 | 0.00 | 37 | 1007.4 |
| 20260503175506 | 20 | 309 | 16.1 | 32.2 | 0.00 | 0.00 | 0.00 | 34 | 1007.4 |
| 20260503175008 | 20 | 293 | 11.3 | 40.2 | 0.00 | 0.00 | 0.00 | 37 | 1007.5 |
| 20260503174526 | 20 | 245 | 16.1 | 40.2 | 0.00 | 0.00 | 0.00 | 34 | 1007.5 |
| 20260503174007 | 20 | 298 | 19.3 | 33.8 | 0.00 | 0.00 | 0.00 | 38 | 1007.6 |
| 20260503173506 | 20 | 294 | 17.7 | 33.8 | 0.00 | 0.00 | 0.00 | 34 | 1007.5 |
| 20260503173022 | 20 | 317 | 14.5 | 37.0 | 0.00 | 0.00 | 0.00 | 37 | 1007.7 |
| 20260503172507 | 20 | 305 | 12.9 | 37.0 | 0.00 | 0.00 | 0.00 | 35 | 1007.7 |
| 20260503172010 | 20 | 315 | 14.5 | 32.2 | 0.00 | 0.00 | 0.00 | 41 | 1007.6 |
| 20260503171523 | 20 | 317 | 12.9 | 33.8 | 0.00 | 0.00 | 0.00 | 36 | 1007.6 |
| 20260503171009 | 19 | 281 | 14.5 | 33.8 | 0.00 | 0.00 | 0.00 | 36 | 1007.6 |
| 20260503170510 | 20 | 268 | 17.7 | 32.2 | 0.00 | 0.00 | 0.00 | 38 | 1007.8 |
| 20260503151007 | 17 | 327 | 8.0 | 22.5 | 0.00 | 0.00 | 0.00 | 44 | 1007.3 |
| 20260503150503 | 17 | 24 | 8.0 | 20.9 | 0.00 | 0.00 | 0.00 | 45 | 1007.3 |
| 20260503131006 | 11 | 297 | 9.7 | 19.3 | 0.00 | 0.00 | 0.00 | 56 | 1006.3 |
| 20260503130504 | 11 | 295 | 9.7 | 22.5 | 0.00 | 0.00 | 0.00 | 56 | 1006.2 |
| 20260503110508 | 10 | 196 | 4.8 | 14.5 | 0.00 | 0.00 | 0.00 | 54 | 1004.8 |